Pall Mall, TN

4:41 AM CDT on May 22, 2015 (GMT -0500)
Highlands @ BSF | | Change Station
CLOSE
Current Station
Personal Weather Station
Location: Jamestown, TN
Elevation: 1637 ft
Nearby Weather Stations

Elev 1637 ft 36.49 °N, 84.86 °W | Updated 13 minutes ago

Partly Cloudy
Partly Cloudy
41.2 °F
Feels Like 41 °F
N
0.0
Wind Variable Wind from East

Today
High -- | Low -- °F
--% Chance of Precip.
Yesterday
High -- | Low -- °F
Precip. -- in
5:27 AM 7:45 PM
Waxing Crescent, 20% visible
Pressure 30.23 in
Visibility 5.0 miles
Clouds Mostly Cloudy 200 ft
Windchill 41 °F
Dew Point 41 °F
Humidity 99%
Rainfall 0.00 in
Snow Depth Not available.
UV 0 out of 12
Pollen 7.30 out of 12
Air Quality Not available.
Flu Activity No Activity
METAR KSME 220915Z AUTO 00000KT 5SM BR BKN002 05/05 A3023 RMK AO2

More Conditions Fewer Conditions

Pressure 30.23 in
Visibility 5.0 miles
Clouds Mostly Cloudy 200 ft
Windchill 41 °F
Dew Point 41 °F
Humidity 99%
Rainfall 0.00 in
Snow Depth Not available.
UV 0 out of 12
Pollen 7.30 out of 12
Air Quality Not available.
Flu Activity No Activity
METAR KSME 220915Z AUTO 00000KT 5SM BR BKN002 05/05 A3023 RMK AO2

More Conditions Fewer Conditions

10-Day Weather Forecast

Almanac

Astronomy

May. 22, 2015 Rise Set
Actual Time
Civil Twilight
Nautical Twilight
Astronomical Twilight
Moon
Length of Visible Light
Length of Day
Tomorrow will be .
, % of the Moon is Illuminated

Today's Extremes

State Highs State Lows

Community

WunderPhotos

Upload Photos

1,823,195 photos uploaded!

WunderBlogs® & News

Nearby

Air Quality

  Air Quality AQ Index Pollutant
Not available.

Snow Depth

Station Depth Elevation

Earthquake Activity

City Distance Mag. Time & Date
Minimum magnitude displayed is 2.5.

Coastal Water Temperatures

Place Temperature

Stations

Nearby Weather Stations

Station Location Temp. Windchill Dew Point Humidity Wind Precip. Elev Updated Type